TimeCDT,TemperatureF,Dew PointF,Humidity,Sea Level PressureIn,VisibilityMPH,Wind Direction,Wind SpeedMPH,Gust SpeedMPH,PrecipitationIn,Events,Conditions,WindDirDegrees,DateUTC
12:53 AM,63.0,59.0,87,29.91,10.0,WSW,3.5,-,N/A,,Overcast,240,2013-04-01 05:53:00
1:40 AM,60.8,57.2,88,29.91,10.0,SSW,3.5,-,N/A,,Scattered Clouds,210,2013-04-01 06:40:00
1:53 AM,61.0,57.9,90,29.90,10.0,SW,3.5,-,N/A,,Partly Cloudy,230,2013-04-01 06:53:00
2:53 AM,60.1,57.0,90,29.91,8.0,SW,3.5,-,N/A,,Scattered Clouds,220,2013-04-01 07:53:00
3:00 AM,60.8,57.2,88,29.91,8.0,SW,5.8,-,N/A,,Mostly Cloudy,220,2013-04-01 08:00:00
3:53 AM,60.1,57.9,93,29.91,8.0,SW,5.8,-,N/A,,Mostly Cloudy,230,2013-04-01 08:53:00
4:00 AM,60.8,57.2,88,29.91,6.0,WSW,5.8,-,N/A,,Mostly Cloudy,240,2013-04-01 09:00:00
4:53 AM,60.1,57.9,93,29.92,6.0,SSW,4.6,-,N/A,,Overcast,210,2013-04-01 09:53:00
5:53 AM,60.1,57.9,93,29.95,5.0,West,4.6,-,N/A,,Overcast,260,2013-04-01 10:53:00
6:45 AM,60.8,57.2,88,29.98,5.0,West,4.6,-,N/A,,Overcast,270,2013-04-01 11:45:00
6:53 AM,60.1,57.9,93,29.98,4.0,West,4.6,-,N/A,,Overcast,260,2013-04-01 11:53:00
7:05 AM,60.8,57.2,88,29.99,4.0,WSW,3.5,-,N/A,,Overcast,250,2013-04-01 12:05:00
7:53 AM,62.1,59.0,90,30.00,5.0,West,4.6,-,N/A,,Overcast,270,2013-04-01 12:53:00
8:20 AM,62.6,59.0,88,30.01,4.0,West,4.6,-,N/A,,Overcast,280,2013-04-01 13:20:00
8:34 AM,62.6,59.0,88,30.01,4.0,WNW,5.8,-,N/A,,Overcast,300,2013-04-01 13:34:00
8:53 AM,62.1,59.0,90,30.02,4.0,NW,6.9,-,N/A,,Overcast,310,2013-04-01 13:53:00
9:14 AM,62.6,59.0,88,30.03,5.0,WNW,3.5,-,N/A,,Overcast,300,2013-04-01 14:14:00
9:53 AM,64.9,57.9,78,30.03,10.0,WNW,4.6,-,N/A,,Overcast,300,2013-04-01 14:53:00
10:41 AM,69.8,57.2,64,30.04,10.0,NW,4.6,-,N/A,,Scattered Clouds,320,2013-04-01 15:41:00
10:53 AM,66.9,57.9,73,30.03,10.0,WSW,5.8,-,N/A,,Mostly Cloudy,240,2013-04-01 15:53:00
11:22 AM,71.6,59.0,64,30.04,10.0,West,9.2,-,N/A,,Mostly Cloudy,270,2013-04-01 16:22:00
11:53 AM,73.0,57.0,57,30.03,10.0,WNW,11.5,-,N/A,,Mostly Cloudy,290,2013-04-01 16:53:00
12:53 PM,75.0,53.1,46,30.02,10.0,Variable,5.8,-,N/A,,Mostly Cloudy,0,2013-04-01 17:53:00
1:53 PM,75.9,51.1,42,30.01,10.0,WNW,8.1,-,N/A,,Scattered Clouds,290,2013-04-01 18:53:00
2:53 PM,77.0,46.0,33,30.00,10.0,West,8.1,-,N/A,,Partly Cloudy,260,2013-04-01 19:53:00
3:53 PM,77.0,42.1,29,29.99,10.0,WNW,6.9,-,N/A,,Partly Cloudy,290,2013-04-01 20:53:00
4:53 PM,78.1,42.1,28,29.98,10.0,NW,9.2,-,N/A,,Clear,320,2013-04-01 21:53:00
5:53 PM,75.9,37.0,24,29.98,10.0,NW,10.4,-,N/A,,Clear,310,2013-04-01 22:53:00
6:53 PM,71.1,43.0,36,29.99,10.0,NNW,4.6,-,N/A,,Clear,330,2013-04-01 23:53:00
7:53 PM,66.9,39.0,36,30.00,10.0,NW,4.6,-,N/A,,Clear,320,2013-04-02 00:53:00
8:53 PM,63.0,41.0,45,30.02,10.0,Calm,Calm,-,N/A,,Clear,0,2013-04-02 01:53:00
9:53 PM,62.1,42.1,48,30.04,10.0,WNW,5.8,-,N/A,,Clear,300,2013-04-02 02:53:00
10:53 PM,61.0,42.1,50,30.04,10.0,NW,3.5,-,N/A,,Clear,310,2013-04-02 03:53:00
11:53 PM,54.0,48.0,80,30.05,10.0,Calm,Calm,-,N/A,,Clear,0,2013-04-02 04:53:00